Location: Unspecified
(0.0000°N, 0.0000°E)
Time: 23:45:11
(UTC+00:00)

Hubble Space Telescope - Pass Details

Date: 12 November 2017
Orbit: 537 x 541 km, 28.5° (Epoch: 22 November)

Event Time Altitude Azimuth Distance (km) Brightness Sun altitude
Exits shadow 04:01:00 48° 46° (NE) 698 1.4 -24.5°
Drops below altitude 10° 04:04:03 10° 56° (NE) 1,777 3.9 -23.8°
Sets 04:06:19 0° 58° (ENE) 2,667 4.9 -23.2°
